Time,TemperatureF,DewpointF,PressureIn,WindDirection,WindDirectionDegrees,WindSpeedMPH,WindSpeedGustMPH,Humidity,HourlyPrecipIn,Conditions,Clouds,dailyrainin,SolarRadiationWatts/m^2,SoftwareType,DateUTC
2013-10-12 00:00:00,65.0,56.2,29.83,SSE,164,2.0,5.0,73,0.00,,---,0.00,0.00,VWS V14.01,2013-10-12 05:00:00,
2013-10-12 00:02:00,65.0,56.2,29.83,SSE,150,1.0,4.0,73,0.00,,---,0.00,0.00,VWS V14.01,2013-10-12 05:02:00,
2013-10-12 00:07:00,65.1,56.2,29.83,SSW,197,2.0,8.0,73,0.00,,---,0.00,0.00,VWS V14.01,2013-10-12 05:07:00,
2013-10-12 00:12:00,65.1,56.2,29.83,SSE,162,1.0,8.0,73,0.00,,---,0.00,0.00,VWS V14.01,2013-10-12 05:12:00,
2013-10-12 00:16:00,65.0,56.2,29.83,SSE,162,1.0,8.0,73,0.00,,---,0.00,0.00,VWS V14.01,2013-10-12 05:16:00,
2013-10-12 00:22:00,65.0,56.2,29.83,South,174,1.0,8.0,73,0.00,,---,0.00,0.00,VWS V14.01,2013-10-12 05:22:00,
2013-10-12 00:27:00,64.9,56.0,29.83,South,169,0.0,8.0,73,0.00,,---,0.00,0.00,VWS V14.01,2013-10-12 05:27:00,
2013-10-12 00:32:00,64.8,56.0,29.83,South,169,1.0,8.0,73,0.00,,---,0.00,0.00,VWS V14.01,2013-10-12 05:32:00,
2013-10-12 00:37:00,64.7,55.9,29.83,SSE,162,0.0,8.0,73,0.00,,---,0.00,0.00,VWS V14.01,2013-10-12 05:37:00,
2013-10-12 00:42:00,64.6,55.8,29.83,SSE,165,0.0,8.0,73,0.00,,---,0.00,0.00,VWS V14.01,2013-10-12 05:42:00,
2013-10-12 00:47:00,64.5,56.0,29.83,South,180,0.0,8.0,74,0.00,,---,0.00,0.00,VWS V14.01,2013-10-12 05:47:00,
2013-10-12 00:52:00,64.4,55.9,29.83,South,180,0.0,8.0,74,0.00,,---,0.00,0.00,VWS V14.01,2013-10-12 05:52:00,
2013-10-12 00:57:00,64.3,55.8,29.83,South,180,0.0,8.0,74,0.00,,---,0.00,0.00,VWS V14.01,2013-10-12 05:57:00,
2013-10-12 01:00:00,64.2,55.8,29.82,South,180,0.0,8.0,74,0.00,,---,0.00,0.00,VWS V14.01,2013-10-12 06:00:00,
2013-10-12 01:02:00,64.1,56.0,29.82,South,180,0.0,1.0,75,0.00,,---,0.00,0.00,VWS V14.01,2013-10-12 06:02:00,
2013-10-12 01:07:00,64.0,55.9,29.82,South,180,0.0,2.0,75,0.00,,---,0.00,0.00,VWS V14.01,2013-10-12 06:07:00,
2013-10-12 01:12:00,63.9,55.8,29.82,South,180,0.0,2.0,75,0.00,,---,0.00,0.00,VWS V14.01,2013-10-12 06:12:00,
2013-10-12 01:17:00,63.9,55.8,29.82,South,180,0.0,2.0,75,0.00,,---,0.00,0.00,VWS V14.01,2013-10-12 06:17:00,
2013-10-12 01:22:00,63.8,56.1,29.82,South,180,0.0,2.0,76,0.00,,---,0.00,0.00,VWS V14.01,2013-10-12 06:22:00,
2013-10-12 01:27:00,63.8,56.1,29.82,South,180,0.0,2.0,76,0.00,,---,0.00,0.00,VWS V14.01,2013-10-12 06:27:00,
2013-10-12 01:32:00,63.8,56.1,29.82,South,180,0.0,2.0,76,0.00,,---,0.00,0.00,VWS V14.01,2013-10-12 06:32:00,
2013-10-12 01:37:00,63.7,56.0,29.82,South,181,0.0,3.0,76,0.00,,---,0.00,0.00,VWS V14.01,2013-10-12 06:37:00,
2013-10-12 01:42:00,63.7,56.0,29.82,SSW,194,0.0,3.0,76,0.00,,---,0.00,0.00,VWS V14.01,2013-10-12 06:42:00,
2013-10-12 01:47:00,63.7,56.0,29.82,South,188,1.0,4.0,76,0.00,,---,0.00,0.00,VWS V14.01,2013-10-12 06:47:00,
2013-10-12 01:52:00,63.8,56.1,29.82,SSW,195,2.0,4.0,76,0.00,,---,0.00,0.00,VWS V14.01,2013-10-12 06:52:00,
2013-10-12 01:57:00,63.9,56.2,29.82,South,181,1.0,4.0,76,0.00,,---,0.00,0.00,VWS V14.01,2013-10-12 06:57:00,
2013-10-12 02:00:00,63.9,56.2,29.82,South,179,1.0,4.0,76,0.00,,---,0.00,0.00,VWS V14.01,2013-10-12 07:00:00,
2013-10-12 02:02:00,64.0,56.3,29.82,South,180,2.0,3.0,76,0.00,,---,0.00,0.00,VWS V14.01,2013-10-12 07:02:00,
2013-10-12 02:07:00,64.0,56.3,29.82,SSW,196,1.0,4.0,76,0.00,,---,0.00,0.00,VWS V14.01,2013-10-12 07:07:00,
2013-10-12 02:12:00,64.1,56.4,29.82,SSW,200,2.0,4.0,76,0.00,,---,0.00,0.00,VWS V14.01,2013-10-12 07:12:00,
2013-10-12 02:17:00,64.1,56.0,29.82,SSW,196,2.0,4.0,75,0.00,,---,0.00,0.00,VWS V14.01,2013-10-12 07:17:00,
2013-10-12 02:22:00,64.1,56.0,29.81,SSW,192,1.0,4.0,75,0.00,,---,0.00,0.00,VWS V14.01,2013-10-12 07:22:00,
2013-10-12 02:27:00,64.1,56.0,29.81,South,188,2.0,4.0,75,0.00,,---,0.00,0.00,VWS V14.01,2013-10-12 07:27:00,
2013-10-12 02:32:00,64.1,56.0,29.81,SSW,198,1.0,5.0,75,0.00,,---,0.00,0.00,VWS V14.01,2013-10-12 07:32:00,
2013-10-12 02:37:00,64.1,56.0,29.81,SSW,205,1.0,5.0,75,0.00,,---,0.00,0.00,VWS V14.01,2013-10-12 07:37:00,
2013-10-12 02:42:00,64.0,56.3,29.81,South,191,3.0,5.0,76,0.00,,---,0.00,0.00,VWS V14.01,2013-10-12 07:42:00,
2013-10-12 02:47:00,64.1,56.4,29.81,South,185,1.0,5.0,76,0.00,,---,0.00,0.00,VWS V14.01,2013-10-12 07:47:00,
2013-10-12 02:52:00,64.1,56.4,29.81,SSW,203,3.0,5.0,76,0.00,,---,0.00,0.00,VWS V14.01,2013-10-12 07:52:00,
2013-10-12 02:57:00,64.1,56.0,29.81,South,174,6.0,6.0,75,0.00,,---,0.00,0.00,VWS V14.01,2013-10-12 07:57:00,
2013-10-12 03:00:00,64.1,56.0,29.81,SSW,194,1.0,6.0,75,0.00,,---,0.00,0.00,VWS V14.01,2013-10-12 08:00:00,
2013-10-12 03:02:00,64.2,56.1,29.81,SSW,200,3.0,5.0,75,0.00,,---,0.00,0.00,VWS V14.01,2013-10-12 08:02:00,
2013-10-12 03:07:00,64.2,56.1,29.81,SSW,192,2.0,5.0,75,0.00,,---,0.00,0.00,VWS V14.01,2013-10-12 08:07:00,
2013-10-12 03:12:00,64.2,56.5,29.81,South,186,1.0,5.0,76,0.00,,---,0.00,0.00,VWS V14.01,2013-10-12 08:12:00,
2013-10-12 03:17:00,64.1,56.8,29.81,SSW,202,4.0,5.0,77,0.00,,---,0.00,0.00,VWS V14.01,2013-10-12 08:17:00,
2013-10-12 03:22:00,63.9,56.6,29.81,SSW,194,5.0,5.0,77,0.00,,---,0.00,0.00,VWS V14.01,2013-10-12 08:22:00,
2013-10-12 03:27:00,63.8,56.5,29.81,SSW,196,3.0,5.0,77,0.00,,---,0.00,0.00,VWS V14.01,2013-10-12 08:27:00,
2013-10-12 03:32:00,63.8,56.8,29.81,SSW,212,5.0,5.0,78,0.00,,---,0.00,0.00,VWS V14.01,2013-10-12 08:32:00,
2013-10-12 03:37:00,63.9,56.6,29.81,South,178,2.0,7.0,77,0.00,,---,0.00,0.00,VWS V14.01,2013-10-12 08:37:00,
2013-10-12 03:42:00,64.0,56.7,29.81,SSW,206,2.0,7.0,77,0.00,,---,0.00,0.00,VWS V14.01,2013-10-12 08:42:00,
2013-10-12 03:47:00,64.0,56.7,29.81,SSW,194,2.0,7.0,77,0.00,,---,0.00,0.00,VWS V14.01,2013-10-12 08:47:00,
2013-10-12 03:52:00,63.9,56.6,29.81,SSW,197,3.0,7.0,77,0.00,,---,0.00,0.00,VWS V14.01,2013-10-12 08:52:00,
2013-10-12 03:57:00,63.7,56.4,29.81,SW,216,3.0,7.0,77,0.00,,---,0.00,0.00,VWS V14.01,2013-10-12 08:57:00,
2013-10-12 04:00:00,63.7,56.4,29.81,SSW,209,3.0,7.0,77,0.00,,---,0.00,0.00,VWS V14.01,2013-10-12 09:00:00,
2013-10-12 04:02:00,63.6,56.6,29.81,South,191,2.0,4.0,78,0.00,,---,0.00,0.00,VWS V14.01,2013-10-12 09:02:00,
2013-10-12 04:07:00,63.6,56.6,29.81,South,185,2.0,5.0,78,0.00,,---,0.00,0.00,VWS V14.01,2013-10-12 09:07:00,
2013-10-12 04:12:00,63.6,56.6,29.81,South,190,4.0,5.0,78,0.00,,---,0.00,0.00,VWS V14.01,2013-10-12 09:12:00,
2013-10-12 04:17:00,63.6,56.6,29.81,SSW,202,2.0,5.0,78,0.00,,---,0.00,0.00,VWS V14.01,2013-10-12 09:17:00,
2013-10-12 04:22:00,63.6,56.6,29.81,SSE,167,3.0,5.0,78,0.00,,---,0.00,0.00,VWS V14.01,2013-10-12 09:22:00,
2013-10-12 04:27:00,63.5,56.5,29.81,South,180,0.0,5.0,78,0.00,,---,0.00,0.00,VWS V14.01,2013-10-12 09:27:00,
2013-10-12 04:32:00,63.4,56.8,29.81,SW,217,1.0,5.0,79,0.00,,---,0.00,0.00,VWS V14.01,2013-10-12 09:32:00,
2013-10-12 04:37:00,63.3,56.7,29.81,SW,217,2.0,5.0,79,0.00,,---,0.00,0.00,VWS V14.01,2013-10-12 09:37:00,
2013-10-12 04:42:00,63.2,56.6,29.80,South,172,1.0,5.0,79,0.00,,---,0.00,0.00,VWS V14.01,2013-10-12 09:42:00,
2013-10-12 04:47:00,63.1,56.5,29.80,South,191,1.0,5.0,79,0.00,,---,0.00,0.00,VWS V14.01,2013-10-12 09:47:00,
2013-10-12 04:52:00,63.0,56.7,29.80,South,184,1.0,5.0,80,0.00,,---,0.00,0.00,VWS V14.01,2013-10-12 09:52:00,
2013-10-12 04:57:00,63.0,56.7,29.81,South,174,2.0,5.0,80,0.00,,---,0.00,0.00,VWS V14.01,2013-10-12 09:57:00,
2013-10-12 05:00:00,63.0,56.7,29.81,South,174,1.0,5.0,80,0.00,,---,0.00,0.00,VWS V14.01,2013-10-12 10:00:00,
2013-10-12 05:02:00,63.0,56.7,29.81,SSW,196,1.0,4.0,80,0.00,,---,0.00,0.00,VWS V14.01,2013-10-12 10:02:00,
2013-10-12 05:07:00,63.0,56.7,29.81,SSW,200,1.0,4.0,80,0.00,,---,0.00,0.00,VWS V14.01,2013-10-12 10:07:00,
2013-10-12 05:12:00,63.0,56.7,29.80,South,176,0.0,4.0,80,0.00,,---,0.00,0.00,VWS V14.01,2013-10-12 10:12:00,
2013-10-12 05:17:00,62.9,56.6,29.81,SSW,195,1.0,4.0,80,0.00,,---,0.00,0.00,VWS V14.01,2013-10-12 10:17:00,
2013-10-12 05:22:00,62.7,56.8,29.80,SSE,152,2.0,4.0,81,0.00,,---,0.00,0.00,VWS V14.01,2013-10-12 10:22:00,
2013-10-12 05:27:00,62.7,56.8,29.80,SSE,159,1.0,4.0,81,0.00,,---,0.00,0.00,VWS V14.01,2013-10-12 10:27:00,
2013-10-12 05:32:00,62.6,56.7,29.80,SSE,157,0.0,4.0,81,0.00,,---,0.00,0.00,VWS V14.01,2013-10-12 10:32:00,
2013-10-12 05:37:00,62.6,56.7,29.80,SSE,157,0.0,4.0,81,0.00,,---,0.00,0.00,VWS V14.01,2013-10-12 10:37:00,
2013-10-12 05:42:00,62.6,56.7,29.79,SSE,157,1.0,4.0,81,0.00,,---,0.00,0.00,VWS V14.01,2013-10-12 10:42:00,
2013-10-12 05:47:00,62.6,56.7,29.79,SSE,162,1.0,4.0,81,0.00,,---,0.00,0.00,VWS V14.01,2013-10-12 10:47:00,
2013-10-12 05:52:00,62.5,56.9,29.80,SSW,211,1.0,4.0,82,0.00,,---,0.00,0.00,VWS V14.01,2013-10-12 10:52:00,
2013-10-12 05:57:00,62.1,56.5,29.81,SSW,211,1.0,4.0,82,0.00,,---,0.00,0.00,VWS V14.01,2013-10-12 10:57:00,
2013-10-12 06:00:00,62.0,56.8,29.81,SSW,211,2.0,4.0,83,0.00,,---,0.00,0.00,VWS V14.01,2013-10-12 11:00:00,
2013-10-12 06:02:00,62.0,56.8,29.81,SSW,204,2.0,4.0,83,0.00,,---,0.00,0.00,VWS V14.01,2013-10-12 11:02:00,
2013-10-12 06:07:00,61.9,56.7,29.81,South,181,2.0,4.0,83,0.00,,---,0.00,0.00,VWS V14.01,2013-10-12 11:07:00,
2013-10-12 06:12:00,61.9,56.7,29.81,South,189,1.0,4.0,83,0.00,,---,0.00,0.00,VWS V14.01,2013-10-12 11:12:00,
2013-10-12 06:17:00,61.8,56.6,29.81,South,188,1.0,4.0,83,0.00,,---,0.00,0.00,VWS V14.01,2013-10-12 11:17:00,
2013-10-12 06:22:00,61.8,56.9,29.81,South,174,1.0,4.0,84,0.00,,---,0.00,0.00,VWS V14.01,2013-10-12 11:22:00,
2013-10-12 06:27:00,61.8,56.9,29.81,SSW,202,2.0,4.0,84,0.00,,---,0.00,0.00,VWS V14.01,2013-10-12 11:27:00,
2013-10-12 06:32:00,61.9,57.0,29.81,SSW,205,0.0,4.0,84,0.00,,---,0.00,0.00,VWS V14.01,2013-10-12 11:32:00,
2013-10-12 06:37:00,62.0,57.1,29.81,SSW,204,0.0,4.0,84,0.00,,---,0.00,0.00,VWS V14.01,2013-10-12 11:37:00,
2013-10-12 06:42:00,62.0,57.1,29.81,South,175,2.0,4.0,84,0.00,,---,0.00,0.00,VWS V14.01,2013-10-12 11:42:00,
2013-10-12 06:47:00,61.9,57.0,29.81,South,181,0.0,5.0,84,0.00,,---,0.00,0.00,VWS V14.01,2013-10-12 11:47:00,
2013-10-12 06:52:00,61.8,56.9,29.82,South,181,2.0,5.0,84,0.00,,---,0.00,0.00,VWS V14.01,2013-10-12 11:52:00,
2013-10-12 06:57:00,61.7,56.8,29.82,South,188,0.0,5.0,84,0.00,,---,0.00,0.00,VWS V14.01,2013-10-12 11:57:00,
2013-10-12 07:00:00,61.7,56.8,29.82,South,188,1.0,5.0,84,0.00,,---,0.00,0.00,VWS V14.01,2013-10-12 12:00:00,
2013-10-12 07:02:00,61.6,56.7,29.82,South,182,3.0,3.0,84,0.00,,---,0.00,0.00,VWS V14.01,2013-10-12 12:02:00,
2013-10-12 07:07:00,61.5,57.0,29.82,South,184,2.0,3.0,85,0.00,,---,0.00,0.00,VWS V14.01,2013-10-12 12:07:00,
2013-10-12 07:12:00,61.5,57.0,29.82,South,182,2.0,3.0,85,0.00,,---,0.00,0.00,VWS V14.01,2013-10-12 12:12:00,
2013-10-12 07:17:00,61.5,57.0,29.82,South,169,1.0,3.0,85,0.00,,---,0.00,5.00,VWS V14.01,2013-10-12 12:17:00,
2013-10-12 07:22:00,61.5,57.0,29.83,SSW,192,2.0,3.0,85,0.00,,---,0.00,11.00,VWS V14.01,2013-10-12 12:22:00,
2013-10-12 07:27:00,61.5,57.0,29.83,SSW,192,0.0,3.0,85,0.00,,---,0.00,19.00,VWS V14.01,2013-10-12 12:27:00,
2013-10-12 07:32:00,61.4,56.9,29.83,SSW,192,1.0,3.0,85,0.00,,---,0.00,30.00,VWS V14.01,2013-10-12 12:32:00,
2013-10-12 07:37:00,61.3,56.8,29.83,WSW,240,2.0,3.0,85,0.00,,---,0.00,44.00,VWS V14.01,2013-10-12 12:37:00,
2013-10-12 07:42:00,61.4,57.2,29.83,South,178,0.0,3.0,86,0.00,,---,0.00,54.00,VWS V14.01,2013-10-12 12:42:00,
2013-10-12 07:47:00,61.5,57.3,29.83,South,186,2.0,3.0,86,0.00,,---,0.00,49.00,VWS V14.01,2013-10-12 12:47:00,
2013-10-12 07:52:00,61.7,57.5,29.84,South,189,2.0,3.0,86,0.00,,---,0.00,63.00,VWS V14.01,2013-10-12 12:52:00,
2013-10-12 07:57:00,62.0,57.8,29.84,SSW,196,1.0,4.0,86,0.00,,---,0.00,63.00,VWS V14.01,2013-10-12 12:57:00,
2013-10-12 08:00:00,62.0,57.8,29.84,South,189,1.0,4.0,86,0.00,,---,0.00,53.00,VWS V14.01,2013-10-12 13:00:00,
2013-10-12 08:02:00,62.2,57.6,29.84,South,175,3.0,4.0,85,0.00,,---,0.00,47.00,VWS V14.01,2013-10-12 13:02:00,
2013-10-12 08:07:00,62.3,57.7,29.84,South,170,1.0,4.0,85,0.00,,---,0.00,49.00,VWS V14.01,2013-10-12 13:07:00,
2013-10-12 08:12:00,62.4,57.8,29.84,South,170,0.0,4.0,85,0.00,,---,0.00,63.00,VWS V14.01,2013-10-12 13:12:00,
2013-10-12 08:17:00,62.6,58.0,29.83,SW,214,2.0,4.0,85,0.00,,---,0.00,65.00,VWS V14.01,2013-10-12 13:17:00,
2013-10-12 08:22:00,62.7,58.1,29.84,SSW,212,1.0,4.0,85,0.00,,---,0.00,32.00,VWS V14.01,2013-10-12 13:22:00,
2013-10-12 08:27:00,62.8,57.9,29.84,SSW,200,3.0,4.0,84,0.00,,---,0.00,46.00,VWS V14.01,2013-10-12 13:27:00,
2013-10-12 08:32:00,62.8,57.9,29.84,SSW,200,0.0,4.0,84,0.00,,---,0.00,44.00,VWS V14.01,2013-10-12 13:32:00,
2013-10-12 08:37:00,62.8,58.2,29.84,SSW,200,0.0,4.0,85,0.00,,---,0.00,53.00,VWS V14.01,2013-10-12 13:37:00,
2013-10-12 08:42:00,62.9,58.0,29.84,South,189,1.0,4.0,84,0.00,,---,0.00,49.00,VWS V14.01,2013-10-12 13:42:00,
2013-10-12 08:47:00,62.9,58.3,29.85,South,189,2.0,4.0,85,0.00,,---,0.00,35.00,VWS V14.01,2013-10-12 13:47:00,
2013-10-12 08:52:00,62.9,58.3,29.84,South,187,0.0,4.0,85,0.00,,---,0.00,44.00,VWS V14.01,2013-10-12 13:52:00,
2013-10-12 08:57:00,62.9,58.3,29.84,South,187,1.0,4.0,85,0.00,,---,0.00,35.00,VWS V14.01,2013-10-12 13:57:00,
2013-10-12 09:00:00,62.9,58.3,29.84,South,187,0.0,4.0,85,0.00,,---,0.00,40.00,VWS V14.01,2013-10-12 14:00:00,
2013-10-12 09:02:00,63.0,58.4,29.84,South,187,2.0,2.0,85,0.00,,---,0.00,39.00,VWS V14.01,2013-10-12 14:02:00,
2013-10-12 09:07:00,63.0,58.4,29.84,South,187,1.0,3.0,85,0.00,,---,0.00,60.00,VWS V14.01,2013-10-12 14:07:00,
2013-10-12 09:12:00,63.0,58.4,29.85,SSW,196,1.0,5.0,85,0.00,,---,0.00,58.00,VWS V14.01,2013-10-12 14:12:00,
2013-10-12 09:17:00,63.1,58.5,29.85,SSW,196,1.0,5.0,85,0.00,,---,0.00,46.00,VWS V14.01,2013-10-12 14:17:00,
2013-10-12 09:22:00,63.1,58.5,29.85,SSW,201,3.0,5.0,85,0.00,,---,0.00,39.00,VWS V14.01,2013-10-12 14:22:00,
2013-10-12 09:27:00,63.1,58.5,29.86,SSW,203,3.0,5.0,85,0.00,,---,0.00,47.00,VWS V14.01,2013-10-12 14:27:00,
2013-10-12 09:32:00,63.1,58.5,29.85,SSW,206,2.0,5.0,85,0.00,,---,0.00,35.00,VWS V14.01,2013-10-12 14:32:00,
2013-10-12 09:37:00,63.0,58.4,29.86,SSW,198,2.0,6.0,85,0.00,,---,0.00,44.00,VWS V14.01,2013-10-12 14:37:00,
2013-10-12 09:42:00,63.0,58.8,29.86,SSW,198,1.0,6.0,86,0.00,,---,0.00,44.00,VWS V14.01,2013-10-12 14:42:00,
2013-10-12 09:47:00,62.9,58.7,29.85,SSW,198,1.0,6.0,86,0.00,,---,0.00,49.00,VWS V14.01,2013-10-12 14:47:00,
2013-10-12 09:52:00,62.9,58.7,29.86,SW,219,3.0,6.0,86,0.00,,---,0.00,25.00,VWS V14.01,2013-10-12 14:52:00,
2013-10-12 09:57:00,62.7,58.1,29.86,WSW,248,4.0,6.0,85,0.00,,---,0.00,32.00,VWS V14.01,2013-10-12 14:57:00,
2013-10-12 10:00:00,62.5,57.3,29.86,WSW,257,1.0,6.0,83,0.00,,---,0.00,47.00,VWS V14.01,2013-10-12 15:00:00,
2013-10-12 10:02:00,62.2,56.3,29.86,SSW,192,1.0,3.0,81,0.00,,---,0.00,116.00,VWS V14.01,2013-10-12 15:02:00,
2013-10-12 10:07:00,61.9,55.7,29.86,SW,235,4.0,5.0,80,0.00,,---,0.00,341.00,VWS V14.01,2013-10-12 15:07:00,
2013-10-12 10:12:00,62.5,56.2,29.86,SSW,205,2.0,5.0,80,0.00,,---,0.00,220.00,VWS V14.01,2013-10-12 15:12:00,
2013-10-12 10:17:00,62.8,56.2,29.86,SW,221,2.0,5.0,79,0.00,,---,0.00,123.00,VWS V14.01,2013-10-12 15:17:00,
2013-10-12 10:22:00,62.8,55.5,29.86,SSW,208,0.0,5.0,77,0.00,,---,0.00,216.00,VWS V14.01,2013-10-12 15:22:00,
2013-10-12 10:27:00,63.0,55.7,29.87,SSW,207,1.0,5.0,77,0.00,,---,0.00,225.00,VWS V14.01,2013-10-12 15:27:00,
2013-10-12 10:32:00,63.3,56.0,29.87,WSW,238,3.0,5.0,77,0.00,,---,0.00,276.00,VWS V14.01,2013-10-12 15:32:00,
2013-10-12 10:37:00,63.6,55.5,29.87,SSW,213,4.0,7.0,75,0.00,,---,0.00,313.00,VWS V14.01,2013-10-12 15:37:00,
2013-10-12 10:42:00,64.0,55.6,29.88,SW,224,4.0,7.0,74,0.00,,---,0.00,373.00,VWS V14.01,2013-10-12 15:42:00,
2013-10-12 10:47:00,63.3,53.0,29.88,SW,236,5.0,7.0,69,0.00,,---,0.00,213.00,VWS V14.01,2013-10-12 15:47:00,
2013-10-12 10:52:00,62.7,52.8,29.88,WSW,240,1.0,7.0,70,0.00,,---,0.00,540.00,VWS V14.01,2013-10-12 15:52:00,
2013-10-12 10:57:00,63.0,52.3,29.88,SW,236,4.0,7.0,68,0.00,,---,0.00,540.00,VWS V14.01,2013-10-12 15:57:00,
2013-10-12 11:00:00,63.0,52.7,29.88,SW,227,5.0,7.0,69,0.00,,---,0.00,541.00,VWS V14.01,2013-10-12 16:00:00,
2013-10-12 11:02:00,63.1,52.8,29.87,West,263,5.0,6.0,69,0.00,,---,0.00,547.00,VWS V14.01,2013-10-12 16:02:00,
2013-10-12 11:07:00,63.8,53.5,29.88,WSW,240,2.0,6.0,69,0.00,,---,0.00,561.00,VWS V14.01,2013-10-12 16:07:00,
2013-10-12 11:12:00,64.3,52.7,29.88,SSW,202,5.0,7.0,66,0.00,,---,0.00,570.00,VWS V14.01,2013-10-12 16:12:00,
2013-10-12 11:17:00,63.8,51.8,29.88,SSW,208,4.0,7.0,65,0.00,,---,0.00,578.00,VWS V14.01,2013-10-12 16:17:00,
2013-10-12 11:22:00,63.9,52.7,29.88,SW,219,1.0,7.0,67,0.00,,---,0.00,587.00,VWS V14.01,2013-10-12 16:22:00,
2013-10-12 11:27:00,64.5,52.5,29.88,WSW,240,3.0,7.0,65,0.00,,---,0.00,594.00,VWS V14.01,2013-10-12 16:27:00,
2013-10-12 11:32:00,64.3,52.7,29.88,SSW,197,5.0,7.0,66,0.00,,---,0.00,603.00,VWS V14.01,2013-10-12 16:32:00,
2013-10-12 11:37:00,65.0,52.1,29.88,SW,228,5.0,7.0,63,0.00,,---,0.00,608.00,VWS V14.01,2013-10-12 16:37:00,
2013-10-12 11:42:00,65.0,50.3,29.88,SSW,196,7.0,9.0,59,0.00,,---,0.00,615.00,VWS V14.01,2013-10-12 16:42:00,
2013-10-12 11:47:00,64.8,50.6,29.88,SW,222,3.0,9.0,60,0.00,,---,0.00,622.00,VWS V14.01,2013-10-12 16:47:00,
2013-10-12 11:52:00,65.0,52.1,29.89,SW,221,3.0,9.0,63,0.00,,---,0.00,628.00,VWS V14.01,2013-10-12 16:52:00,
2013-10-12 11:57:00,65.5,51.3,29.89,SSW,204,3.0,9.0,60,0.00,,---,0.00,631.00,VWS V14.01,2013-10-12 16:57:00,
2013-10-12 12:00:00,65.7,51.5,29.88,WSW,250,3.0,9.0,60,0.00,,---,0.00,635.00,VWS V14.01,2013-10-12 17:00:00,
2013-10-12 12:02:00,65.7,51.5,29.89,SW,219,5.0,6.0,60,0.00,,---,0.00,638.00,VWS V14.01,2013-10-12 17:02:00,
2013-10-12 12:07:00,65.9,51.2,29.89,WSW,241,4.0,6.0,59,0.00,,---,0.00,638.00,VWS V14.01,2013-10-12 17:07:00,
2013-10-12 12:12:00,65.9,50.2,29.89,SW,225,4.0,7.0,57,0.00,,---,0.00,643.00,VWS V14.01,2013-10-12 17:12:00,
2013-10-12 12:17:00,65.8,50.2,29.89,SSW,197,5.0,7.0,57,0.00,,---,0.00,645.00,VWS V14.01,2013-10-12 17:17:00,
2013-10-12 12:22:00,66.0,50.3,29.89,SW,221,5.0,7.0,57,0.00,,---,0.00,643.00,VWS V14.01,2013-10-12 17:22:00,
2013-10-12 12:27:00,66.5,50.8,29.89,SW,233,1.0,7.0,57,0.00,,---,0.00,647.00,VWS V14.01,2013-10-12 17:27:00,
2013-10-12 12:32:00,66.3,49.7,29.89,SW,220,4.0,12.0,55,0.00,,---,0.00,650.00,VWS V14.01,2013-10-12 17:32:00,
2013-10-12 12:37:00,65.9,49.3,29.89,WSW,250,5.0,12.0,55,0.00,,---,0.00,650.00,VWS V14.01,2013-10-12 17:37:00,
2013-10-12 12:42:00,65.7,49.6,29.89,SSW,197,6.0,12.0,56,0.00,,---,0.00,650.00,VWS V14.01,2013-10-12 17:42:00,
2013-10-12 12:47:00,65.9,49.3,29.89,South,182,6.0,12.0,55,0.00,,---,0.00,652.00,VWS V14.01,2013-10-12 17:47:00,
2013-10-12 12:52:00,66.2,48.6,29.89,WSW,253,4.0,12.0,53,0.00,,---,0.00,654.00,VWS V14.01,2013-10-12 17:52:00,
2013-10-12 12:57:00,66.1,48.5,29.89,SW,232,5.0,12.0,53,0.00,,---,0.00,652.00,VWS V14.01,2013-10-12 17:57:00,
2013-10-12 13:00:00,65.8,48.2,29.89,SW,218,3.0,12.0,53,0.00,,---,0.00,652.00,VWS V14.01,2013-10-12 18:00:00,
2013-10-12 13:02:00,65.9,48.8,29.89,SSW,207,7.0,7.0,54,0.00,,---,0.00,652.00,VWS V14.01,2013-10-12 18:02:00,
2013-10-12 13:07:00,65.8,48.7,29.89,SSW,211,6.0,7.0,54,0.00,,---,0.00,649.00,VWS V14.01,2013-10-12 18:07:00,
2013-10-12 13:12:00,66.2,49.6,29.89,SW,223,6.0,7.0,55,0.00,,---,0.00,647.00,VWS V14.01,2013-10-12 18:12:00,
2013-10-12 13:17:00,66.5,48.9,29.89,SSW,204,7.0,8.0,53,0.00,,---,0.00,647.00,VWS V14.01,2013-10-12 18:17:00,
2013-10-12 13:22:00,66.2,48.6,29.89,SW,231,4.0,8.0,53,0.00,,---,0.00,643.00,VWS V14.01,2013-10-12 18:22:00,
2013-10-12 13:27:00,65.6,48.0,29.89,SSW,197,7.0,13.0,53,0.00,,---,0.00,643.00,VWS V14.01,2013-10-12 18:27:00,
2013-10-12 13:32:00,65.8,48.7,29.89,SSW,196,6.0,13.0,54,0.00,,---,0.00,640.00,VWS V14.01,2013-10-12 18:32:00,
2013-10-12 13:37:00,65.7,46.6,29.89,SSW,211,7.0,13.0,50,0.00,,---,0.00,640.00,VWS V14.01,2013-10-12 18:37:00,
2013-10-12 13:42:00,65.7,47.1,29.90,WSW,250,6.0,13.0,51,0.00,,---,0.00,633.00,VWS V14.01,2013-10-12 18:42:00,
2013-10-12 13:47:00,65.5,47.4,29.90,WSW,239,6.0,13.0,52,0.00,,---,0.00,631.00,VWS V14.01,2013-10-12 18:47:00,
2013-10-12 13:52:00,65.8,47.7,29.90,SSW,199,3.0,13.0,52,0.00,,---,0.00,626.00,VWS V14.01,2013-10-12 18:52:00,
2013-10-12 13:57:00,65.8,46.7,29.90,SSW,209,5.0,13.0,50,0.00,,---,0.00,615.00,VWS V14.01,2013-10-12 18:57:00,
2013-10-12 14:00:00,65.7,47.1,29.90,West,263,2.0,13.0,51,0.00,,---,0.00,613.00,VWS V14.01,2013-10-12 19:00:00,
2013-10-12 14:02:00,66.1,47.5,29.90,SSW,199,5.0,9.0,51,0.00,,---,0.00,608.00,VWS V14.01,2013-10-12 19:02:00,
2013-10-12 14:07:00,66.1,47.5,29.90,WSW,249,3.0,9.0,51,0.00,,---,0.00,603.00,VWS V14.01,2013-10-12 19:07:00,
2013-10-12 14:12:00,66.3,47.1,29.90,WSW,250,7.0,9.0,50,0.00,,---,0.00,596.00,VWS V14.01,2013-10-12 19:12:00,
2013-10-12 14:17:00,66.4,47.7,29.90,WSW,258,5.0,12.0,51,0.00,,---,0.00,591.00,VWS V14.01,2013-10-12 19:17:00,
2013-10-12 14:22:00,66.3,47.7,29.90,SW,215,4.0,12.0,51,0.00,,---,0.00,582.00,VWS V14.01,2013-10-12 19:22:00,
2013-10-12 14:27:00,66.5,46.8,29.90,SW,223,3.0,12.0,49,0.00,,---,0.00,575.00,VWS V14.01,2013-10-12 19:27:00,
2013-10-12 14:32:00,66.7,47.5,29.90,WSW,257,3.0,12.0,50,0.00,,---,0.00,568.00,VWS V14.01,2013-10-12 19:32:00,
2013-10-12 14:37:00,66.5,47.8,29.90,SW,233,5.0,12.0,51,0.00,,---,0.00,563.00,VWS V14.01,2013-10-12 19:37:00,
2013-10-12 14:42:00,66.1,46.9,29.90,SW,215,4.0,12.0,50,0.00,,---,0.00,555.00,VWS V14.01,2013-10-12 19:42:00,
2013-10-12 14:47:00,66.0,46.3,29.90,SW,233,6.0,12.0,49,0.00,,---,0.00,547.00,VWS V14.01,2013-10-12 19:47:00,
2013-10-12 14:52:00,65.9,46.2,29.91,SW,223,8.0,12.0,49,0.00,,---,0.00,538.00,VWS V14.01,2013-10-12 19:52:00,
2013-10-12 14:57:00,65.7,47.1,29.91,SSW,213,4.0,12.0,51,0.00,,---,0.00,526.00,VWS V14.01,2013-10-12 19:57:00,
2013-10-12 15:00:00,65.8,47.2,29.91,SSW,206,7.0,12.0,51,0.00,,---,0.00,524.00,VWS V14.01,2013-10-12 20:00:00,
2013-10-12 15:02:00,65.9,46.8,29.91,SSW,202,7.0,9.0,50,0.00,,---,0.00,515.00,VWS V14.01,2013-10-12 20:02:00,
2013-10-12 15:07:00,65.9,46.2,29.91,SSW,196,7.0,9.0,49,0.00,,---,0.00,504.00,VWS V14.01,2013-10-12 20:07:00,
2013-10-12 15:12:00,65.6,46.5,29.92,SSW,192,6.0,9.0,50,0.00,,---,0.00,496.00,VWS V14.01,2013-10-12 20:12:00,
2013-10-12 15:17:00,65.7,47.6,29.92,SW,235,4.0,13.0,52,0.00,,---,0.00,482.00,VWS V14.01,2013-10-12 20:17:00,
2013-10-12 15:22:00,65.8,46.7,29.92,WSW,238,4.0,13.0,50,0.00,,---,0.00,471.00,VWS V14.01,2013-10-12 20:22:00,
2013-10-12 15:27:00,65.7,46.0,29.92,SW,230,4.0,13.0,49,0.00,,---,0.00,459.00,VWS V14.01,2013-10-12 20:27:00,
2013-10-12 15:32:00,65.3,46.7,29.93,SSW,195,7.0,13.0,51,0.00,,---,0.00,443.00,VWS V14.01,2013-10-12 20:32:00,
2013-10-12 15:37:00,65.2,46.1,29.93,WSW,254,2.0,13.0,50,0.00,,---,0.00,432.00,VWS V14.01,2013-10-12 20:37:00,
2013-10-12 15:42:00,65.6,46.5,29.93,SW,228,4.0,13.0,50,0.00,,---,0.00,418.00,VWS V14.01,2013-10-12 20:42:00,
2013-10-12 15:47:00,65.3,46.2,29.93,SW,231,5.0,13.0,50,0.00,,---,0.00,418.00,VWS V14.01,2013-10-12 20:47:00,
2013-10-12 15:52:00,65.4,45.2,29.93,SW,219,7.0,13.0,48,0.00,,---,0.00,397.00,VWS V14.01,2013-10-12 20:52:00,
2013-10-12 15:57:00,64.9,45.8,29.93,SSW,203,6.0,13.0,50,0.00,,---,0.00,380.00,VWS V14.01,2013-10-12 20:57:00,
2013-10-12 16:00:00,64.8,45.7,29.93,SW,221,7.0,13.0,50,0.00,,---,0.00,378.00,VWS V14.01,2013-10-12 21:00:00,
2013-10-12 16:02:00,64.9,46.4,29.93,WSW,241,6.0,7.0,51,0.00,,---,0.00,381.00,VWS V14.01,2013-10-12 21:02:00,
2013-10-12 16:07:00,64.9,46.4,29.93,SW,222,7.0,10.0,51,0.00,,---,0.00,355.00,VWS V14.01,2013-10-12 21:07:00,
2013-10-12 16:12:00,64.7,46.2,29.93,NNW,329,3.0,10.0,51,0.00,,---,0.00,336.00,VWS V14.01,2013-10-12 21:12:00,
2013-10-12 16:17:00,64.7,46.7,29.94,WSW,252,3.0,10.0,52,0.00,,---,0.00,323.00,VWS V14.01,2013-10-12 21:17:00,
2013-10-12 16:22:00,64.3,44.2,29.94,West,270,4.0,10.0,48,0.00,,---,0.00,308.00,VWS V14.01,2013-10-12 21:22:00,
2013-10-12 16:27:00,63.7,44.2,29.94,SW,216,5.0,10.0,49,0.00,,---,0.00,294.00,VWS V14.01,2013-10-12 21:27:00,
2013-10-12 16:32:00,63.5,45.1,29.94,SSW,205,3.0,10.0,51,0.00,,---,0.00,276.00,VWS V14.01,2013-10-12 21:32:00,
2013-10-12 16:37:00,63.5,45.1,29.95,West,273,2.0,10.0,51,0.00,,---,0.00,258.00,VWS V14.01,2013-10-12 21:37:00,
2013-10-12 16:42:00,63.3,44.4,29.96,SW,229,4.0,10.0,50,0.00,,---,0.00,243.00,VWS V14.01,2013-10-12 21:42:00,
2013-10-12 16:47:00,63.0,44.1,29.96,WSW,241,5.0,10.0,50,0.00,,---,0.00,225.00,VWS V14.01,2013-10-12 21:47:00,
2013-10-12 16:52:00,62.7,44.3,29.96,SW,227,5.0,10.0,51,0.00,,---,0.00,207.00,VWS V14.01,2013-10-12 21:52:00,
2013-10-12 16:57:00,62.7,44.3,29.96,SSW,213,4.0,10.0,51,0.00,,---,0.00,192.00,VWS V14.01,2013-10-12 21:57:00,
2013-10-12 17:00:00,62.7,44.8,29.96,WSW,238,6.0,10.0,52,0.00,,---,0.00,186.00,VWS V14.01,2013-10-12 22:00:00,
2013-10-12 17:02:00,62.5,44.2,29.96,SW,225,5.0,9.0,51,0.00,,---,0.00,176.00,VWS V14.01,2013-10-12 22:02:00,
2013-10-12 17:07:00,62.3,44.0,29.96,SW,219,5.0,9.0,51,0.00,,---,0.00,149.00,VWS V14.01,2013-10-12 22:07:00,
2013-10-12 17:12:00,62.3,44.0,29.97,WSW,246,4.0,9.0,51,0.00,,---,0.00,37.00,VWS V14.01,2013-10-12 22:12:00,
2013-10-12 17:17:00,61.7,42.9,29.97,WSW,252,2.0,9.0,50,0.00,,---,0.00,65.00,VWS V14.01,2013-10-12 22:17:00,
2013-10-12 17:22:00,61.5,43.2,29.98,WSW,238,3.0,9.0,51,0.00,,---,0.00,37.00,VWS V14.01,2013-10-12 22:22:00,
2013-10-12 17:27:00,61.1,42.8,29.98,SW,236,3.0,9.0,51,0.00,,---,0.00,42.00,VWS V14.01,2013-10-12 22:27:00,
2013-10-12 17:32:00,60.7,43.5,29.98,WSW,247,2.0,9.0,53,0.00,,---,0.00,32.00,VWS V14.01,2013-10-12 22:32:00,
2013-10-12 17:37:00,60.6,43.4,29.98,WSW,237,3.0,9.0,53,0.00,,---,0.00,26.00,VWS V14.01,2013-10-12 22:37:00,
2013-10-12 17:42:00,60.4,43.7,29.98,West,275,0.0,9.0,54,0.00,,---,0.00,21.00,VWS V14.01,2013-10-12 22:42:00,
2013-10-12 17:47:00,60.0,44.3,29.98,West,266,0.0,9.0,56,0.00,,---,0.00,18.00,VWS V14.01,2013-10-12 22:47:00,
2013-10-12 17:52:00,59.5,43.8,29.99,WSW,258,3.0,9.0,56,0.00,,---,0.00,19.00,VWS V14.01,2013-10-12 22:52:00,
2013-10-12 17:57:00,59.2,43.5,29.99,WSW,244,2.0,9.0,56,0.00,,---,0.00,19.00,VWS V14.01,2013-10-12 22:57:00,
2013-10-12 18:00:00,59.2,44.0,29.99,WSW,244,1.0,9.0,57,0.00,,---,0.00,19.00,VWS V14.01,2013-10-12 23:00:00,
2013-10-12 18:02:00,59.0,44.3,29.99,WSW,244,3.0,4.0,58,0.00,,---,0.00,18.00,VWS V14.01,2013-10-12 23:02:00,
2013-10-12 18:07:00,58.8,43.6,29.99,West,263,4.0,5.0,57,0.00,,---,0.00,14.00,VWS V14.01,2013-10-12 23:07:00,
2013-10-12 18:12:00,58.7,44.0,29.99,SW,235,7.0,7.0,58,0.00,,---,0.00,12.00,VWS V14.01,2013-10-12 23:12:00,
2013-10-12 18:17:00,58.6,43.4,30.00,WSW,239,3.0,7.0,57,0.00,,---,0.00,7.00,VWS V14.01,2013-10-12 23:17:00,
2013-10-12 18:22:00,58.4,43.7,30.00,SW,226,2.0,7.0,58,0.00,,---,0.00,0.00,VWS V14.01,2013-10-12 23:22:00,
2013-10-12 18:27:00,57.8,43.1,30.00,SW,226,1.0,7.0,58,0.00,,---,0.00,0.00,VWS V14.01,2013-10-12 23:27:00,
2013-10-12 18:32:00,57.4,43.6,30.00,SW,226,2.0,7.0,60,0.00,,---,0.00,0.00,VWS V14.01,2013-10-12 23:32:00,
2013-10-12 18:37:00,57.1,43.4,30.00,SW,226,0.0,7.0,60,0.00,,---,0.00,0.00,VWS V14.01,2013-10-12 23:37:00,
2013-10-12 18:42:00,56.8,43.1,30.00,SW,226,0.0,7.0,60,0.00,,---,0.00,0.00,VWS V14.01,2013-10-12 23:42:00,
2013-10-12 18:47:00,56.5,42.8,30.01,SW,226,1.0,7.0,60,0.00,,---,0.00,0.00,VWS V14.01,2013-10-12 23:47:00,
2013-10-12 18:52:00,56.5,42.8,30.01,WSW,242,2.0,7.0,60,0.00,,---,0.00,0.00,VWS V14.01,2013-10-12 23:52:00,
2013-10-12 18:57:00,56.4,42.7,30.01,WSW,242,0.0,7.0,60,0.00,,---,0.00,0.00,VWS V14.01,2013-10-12 23:57:00,
2013-10-12 19:00:00,56.4,42.7,30.01,WSW,242,1.0,7.0,60,0.00,,---,0.00,0.00,VWS V14.01,2013-10-13 00:00:00,
2013-10-12 19:02:00,56.3,42.6,30.02,SSW,207,2.0,3.0,60,0.00,,---,0.00,0.00,VWS V14.01,2013-10-13 00:02:00,
2013-10-12 19:07:00,56.2,42.5,30.02,WSW,242,2.0,4.0,60,0.00,,---,0.00,0.00,VWS V14.01,2013-10-13 00:07:00,
2013-10-12 19:12:00,56.0,42.8,30.02,West,261,4.0,5.0,61,0.00,,---,0.00,0.00,VWS V14.01,2013-10-13 00:12:00,
2013-10-12 19:17:00,56.1,40.6,30.02,West,265,3.0,7.0,56,0.00,,---,0.00,0.00,VWS V14.01,2013-10-13 00:17:00,
2013-10-12 19:22:00,56.4,40.5,30.03,NW,314,2.0,7.0,55,0.00,,---,0.00,0.00,VWS V14.01,2013-10-13 00:22:00,
2013-10-12 19:27:00,56.5,40.5,30.03,SW,234,1.0,7.0,55,0.00,,---,0.00,0.00,VWS V14.01,2013-10-13 00:27:00,
2013-10-12 19:32:00,56.4,40.0,30.03,WNW,300,1.0,7.0,54,0.00,,---,0.00,0.00,VWS V14.01,2013-10-13 00:32:00,
2013-10-12 19:37:00,56.2,39.8,30.03,SW,225,1.0,7.0,54,0.00,,---,0.00,0.00,VWS V14.01,2013-10-13 00:37:00,
2013-10-12 19:42:00,55.9,40.0,30.04,SW,225,1.0,7.0,55,0.00,,---,0.00,0.00,VWS V14.01,2013-10-13 00:42:00,
2013-10-12 19:47:00,55.6,39.7,30.04,SW,224,0.0,7.0,55,0.00,,---,0.00,0.00,VWS V14.01,2013-10-13 00:47:00,
2013-10-12 19:52:00,55.2,39.8,30.04,SW,223,1.0,7.0,56,0.00,,---,0.00,0.00,VWS V14.01,2013-10-13 00:52:00,
2013-10-12 19:57:00,54.8,39.0,30.04,SW,223,0.0,7.0,55,0.00,,---,0.00,0.00,VWS V14.01,2013-10-13 00:57:00,
2013-10-12 20:00:00,54.8,39.0,30.04,SW,223,0.0,7.0,55,0.00,,---,0.00,0.00,VWS V14.01,2013-10-13 01:00:00,
2013-10-12 20:02:00,54.6,38.8,30.04,SW,223,0.0,0.0,55,0.00,,---,0.00,0.00,VWS V14.01,2013-10-13 01:02:00,
2013-10-12 20:07:00,54.4,39.0,30.04,SW,223,0.0,0.0,56,0.00,,---,0.00,0.00,VWS V14.01,2013-10-13 01:07:00,
2013-10-12 20:12:00,54.1,39.2,30.05,SW,223,0.0,0.0,57,0.00,,---,0.00,0.00,VWS V14.01,2013-10-13 01:12:00,
2013-10-12 20:17:00,53.4,39.0,30.05,SW,223,0.0,0.0,58,0.00,,---,0.00,0.00,VWS V14.01,2013-10-13 01:17:00,
2013-10-12 20:22:00,52.9,38.5,30.05,SW,223,0.0,0.0,58,0.00,,---,0.00,0.00,VWS V14.01,2013-10-13 01:22:00,
2013-10-12 20:27:00,52.4,38.1,30.05,SW,223,0.0,0.0,58,0.00,,---,0.00,0.00,VWS V14.01,2013-10-13 01:27:00,
2013-10-12 20:32:00,51.9,38.9,30.05,SW,223,0.0,0.0,61,0.00,,---,0.00,0.00,VWS V14.01,2013-10-13 01:32:00,
2013-10-12 20:37:00,51.4,38.8,30.06,SW,223,0.0,0.0,62,0.00,,---,0.00,0.00,VWS V14.01,2013-10-13 01:37:00,
2013-10-12 20:42:00,51.0,38.9,30.06,SW,223,0.0,0.0,63,0.00,,---,0.00,0.00,VWS V14.01,2013-10-13 01:42:00,
2013-10-12 20:47:00,50.6,38.9,30.06,SW,223,0.0,0.0,64,0.00,,---,0.00,0.00,VWS V14.01,2013-10-13 01:47:00,
2013-10-12 20:52:00,50.3,38.2,30.07,SW,223,0.0,0.0,63,0.00,,---,0.00,0.00,VWS V14.01,2013-10-13 01:52:00,
2013-10-12 20:57:00,50.0,38.7,30.07,SW,223,0.0,0.0,65,0.00,,---,0.00,0.00,VWS V14.01,2013-10-13 01:57:00,
2013-10-12 21:00:00,49.9,38.6,30.07,SW,223,0.0,0.0,65,0.00,,---,0.00,0.00,VWS V14.01,2013-10-13 02:00:00,
2013-10-12 21:02:00,49.4,38.5,30.07,SW,223,0.0,0.0,66,0.00,,---,0.00,0.00,VWS V14.01,2013-10-13 02:02:00,
2013-10-12 21:07:00,48.8,38.7,30.07,SW,223,0.0,0.0,68,0.00,,---,0.00,0.00,VWS V14.01,2013-10-13 02:07:00,
2013-10-12 21:12:00,48.2,39.2,30.07,SW,223,0.0,0.0,71,0.00,,---,0.00,0.00,VWS V14.01,2013-10-13 02:12:00,
2013-10-12 21:17:00,47.6,39.0,30.07,SW,223,0.0,0.0,72,0.00,,---,0.00,0.00,VWS V14.01,2013-10-13 02:17:00,
2013-10-12 21:22:00,47.3,38.7,30.07,SW,223,0.0,0.0,72,0.00,,---,0.00,0.00,VWS V14.01,2013-10-13 02:22:00,
2013-10-12 21:27:00,47.0,38.8,30.07,SW,223,0.0,0.0,73,0.00,,---,0.00,0.00,VWS V14.01,2013-10-13 02:27:00,
2013-10-12 21:32:00,46.7,38.9,30.08,SW,223,0.0,0.0,74,0.00,,---,0.00,0.00,VWS V14.01,2013-10-13 02:32:00,
2013-10-12 21:37:00,46.5,39.0,30.08,SW,223,0.0,0.0,75,0.00,,---,0.00,0.00,VWS V14.01,2013-10-13 02:37:00,
2013-10-12 21:42:00,46.2,39.1,30.08,SW,223,0.0,0.0,76,0.00,,---,0.00,0.00,VWS V14.01,2013-10-13 02:42:00,
2013-10-12 21:47:00,46.0,39.2,30.08,SW,223,0.0,0.0,77,0.00,,---,0.00,0.00,VWS V14.01,2013-10-13 02:47:00,
2013-10-12 21:52:00,45.5,39.0,30.08,SW,223,0.0,1.0,78,0.00,,---,0.00,0.00,VWS V14.01,2013-10-13 02:52:00,
2013-10-12 21:57:00,45.0,38.9,30.08,SW,223,0.0,1.0,79,0.00,,---,0.00,0.00,VWS V14.01,2013-10-13 02:57:00,
2013-10-12 22:00:00,44.9,39.1,30.08,SW,223,0.0,1.0,80,0.00,,---,0.00,0.00,VWS V14.01,2013-10-13 03:00:00,
2013-10-12 22:02:00,44.6,39.1,30.08,SW,223,0.0,0.0,81,0.00,,---,0.00,0.00,VWS V14.01,2013-10-13 03:02:00,
2013-10-12 22:07:00,44.3,39.2,30.08,SW,223,0.0,1.0,82,0.00,,---,0.00,0.00,VWS V14.01,2013-10-13 03:07:00,
2013-10-12 22:12:00,44.1,39.0,30.09,SW,223,0.0,1.0,82,0.00,,---,0.00,0.00,VWS V14.01,2013-10-13 03:12:00,
2013-10-12 22:17:00,44.2,39.1,30.09,SW,223,0.0,1.0,82,0.00,,---,0.00,0.00,VWS V14.01,2013-10-13 03:17:00,
2013-10-12 22:22:00,44.0,38.9,30.10,SW,223,0.0,1.0,82,0.00,,---,0.00,0.00,VWS V14.01,2013-10-13 03:22:00,
2013-10-12 22:27:00,43.6,39.1,30.10,SW,223,0.0,1.0,84,0.00,,---,0.00,0.00,VWS V14.01,2013-10-13 03:27:00,
2013-10-12 22:32:00,43.3,38.8,30.10,SW,223,0.0,1.0,84,0.00,,---,0.00,0.00,VWS V14.01,2013-10-13 03:32:00,
2013-10-12 22:37:00,43.1,38.9,30.10,SW,223,2.0,2.0,85,0.00,,---,0.00,0.00,VWS V14.01,2013-10-13 03:37:00,
2013-10-12 22:42:00,42.9,39.0,30.10,SW,223,2.0,2.0,86,0.00,,---,0.00,0.00,VWS V14.01,2013-10-13 03:42:00,
2013-10-12 22:47:00,42.9,39.0,30.10,WNW,300,0.0,2.0,86,0.00,,---,0.00,0.00,VWS V14.01,2013-10-13 03:47:00,
2013-10-12 22:52:00,42.9,39.0,30.11,WNW,300,1.0,2.0,86,0.00,,---,0.00,0.00,VWS V14.01,2013-10-13 03:52:00,
2013-10-12 22:57:00,42.9,39.0,30.11,WNW,300,0.0,2.0,86,0.00,,---,0.00,0.00,VWS V14.01,2013-10-13 03:57:00,
2013-10-12 23:00:00,42.9,39.0,30.11,WNW,300,1.0,2.0,86,0.00,,---,0.00,0.00,VWS V14.01,2013-10-13 04:00:00,
2013-10-12 23:01:00,42.9,39.0,30.11,WNW,300,0.0,2.0,86,0.00,,---,0.00,0.00,VWS V14.01,2013-10-13 04:01:00,
2013-10-12 23:06:00,42.6,38.7,30.11,WNW,300,1.0,2.0,86,0.00,,---,0.00,0.00,VWS V14.01,2013-10-13 04:06:00,
2013-10-12 23:11:00,42.6,38.7,30.12,WNW,300,0.0,2.0,86,0.00,,---,0.00,0.00,VWS V14.01,2013-10-13 04:11:00,
2013-10-12 23:16:00,42.5,38.6,30.12,WNW,300,0.0,2.0,86,0.00,,---,0.00,0.00,VWS V14.01,2013-10-13 04:16:00,
2013-10-12 23:21:00,42.4,38.5,30.12,WNW,300,0.0,2.0,86,0.00,,---,0.00,0.00,VWS V14.01,2013-10-13 04:21:00,
2013-10-12 23:26:00,42.2,38.6,30.12,WNW,300,0.0,2.0,87,0.00,,---,0.00,0.00,VWS V14.01,2013-10-13 04:26:00,
2013-10-12 23:31:00,42.0,38.4,30.12,WNW,302,0.0,2.0,87,0.00,,---,0.00,0.00,VWS V14.01,2013-10-13 04:31:00,
2013-10-12 23:36:00,41.9,38.3,30.12,WNW,303,0.0,2.0,87,0.00,,---,0.00,0.00,VWS V14.01,2013-10-13 04:36:00,
2013-10-12 23:41:00,41.8,38.5,30.13,WNW,302,0.0,2.0,88,0.00,,---,0.00,0.00,VWS V14.01,2013-10-13 04:41:00,
2013-10-12 23:46:00,41.8,38.5,30.13,WNW,302,1.0,2.0,88,0.00,,---,0.00,0.00,VWS V14.01,2013-10-13 04:46:00,
2013-10-12 23:51:00,41.7,38.4,30.13,WNW,302,0.0,2.0,88,0.00,,---,0.00,0.00,VWS V14.01,2013-10-13 04:51:00,
2013-10-12 23:56:00,41.5,38.2,30.14,WNW,302,0.0,2.0,88,0.00,,---,0.00,0.00,VWS V14.01,2013-10-13 04:56:00,